Location: Unspecified
(0.0000°N, 0.0000°E)
Time: 12:24:31
(UTC+02:00)

Meteor PRIRODA - Visible Passes

Search period start: 28 May 2017 00:00
Search period end: 07 June 2017 00:00
Orbit: 493 x 516 km, 97.4° (Epoch: 27 May)

Date Brightness Start Highest point End Pass type
(mag) Time Alt. Az. Time Alt. Az. Time Alt. Az.
28 May 5.2 06:34:31 10° NNW 06:36:21 21° NW 06:36:21 21° NW visible
29 May 4.9 06:15:58 10° N 06:18:03 31° NNW 06:18:03 31° NNW visible
30 May 5.3 05:57:47 10° NNE 05:59:44 30° NNE 05:59:44 30° NNE visible
31 May 6.2 05:40:01 10° NE 05:41:24 20° NE 05:41:24 20° NE visible
01 Jun 7.0 05:22:46 10° ENE 05:23:06 11° ENE 05:23:06 11° ENE visible
01 Jun 5.8 06:57:14 10° NW 06:57:53 12° WNW 06:57:53 12° WNW visible
02 Jun 5.3 06:37:44 10° NNW 06:39:33 20° NW 06:39:33 20° NW visible
03 Jun 4.9 06:19:05 10° N 06:21:14 31° NNW 06:21:14 31° NNW visible
04 Jun 5.1 06:00:51 10° NNE 06:02:54 32° NNE 06:02:54 32° NNE visible
05 Jun 6.0 05:42:59 10° NNE 05:44:34 22° NE 05:44:34 22° NE visible
06 Jun 6.8 05:25:37 10° NE 05:26:14 13° ENE 05:26:14 13° ENE visible
06 Jun 5.9 07:00:45 10° WNW 07:01:01 10° WNW 07:01:01 10° WNW visible
